This demonstration page uses our WeatherBlox Daily Observations layout. Learn more.

Left ArrowRight Arrow

38.80484, -77.04692

Hourly Observations for December 27, 2021

Temp ( °F °C ) Dew Point ( °F °C ) Humidity (%) Winds ( mph kmh ) Pressure ( in mb ) Visibility ( mi km ) Precip ( " mm )
12:52 am 00:52 Mostly Cloudy 43 6.1 29 -1.7 58 58 N 10 17 30.13 1020 10 16 0.00 0.00
1:52 am 01:52 Partly Cloudy 43 6.1 30 -1.1 60 60 ENE 5 7 30.13 1020 10 16 0.00 0.00
2:52 am 02:52 Partly Cloudy 42 5.6 31 -0.6 65 65 ENE 6 9 30.14 1021 10 16 0.00 0.00
3:52 am 03:52 Cloudy 41 5 30 -1.1 65 65 NE 7 11 30.11 1020 10 16 0.00 0.00
4:52 am 04:52 Cloudy 41 5 29 -1.7 62 62 NE 12 19 30.08 1019 10 16 0.00 0.00
5:52 am 05:52 Cloudy 41 5 28 -2.2 60 60 Calm 30.12 1020 10 16 0.00 0.00
6:52 am 06:52 Partly Cloudy 41 5 28 -2.2 60 60 E 7 11 30.10 1019 10 16 0.00 0.00
7:52 am 07:52 Cloudy 41 5 28 -2.2 60 60 ENE 3 6 30.12 1020 10 16 0.00 0.00
8:52 am 08:52 Cloudy with Light Rain 41 5 29 -1.7 62 62 SSE 7 11 30.09 1019 10 16 0.00 0.00
9:52 am 09:52 Cloudy 41 5 30 -1.1 65 65 E 5 7 30.09 1019 10 16 0.00 0.00
10:52 am 10:52 Cloudy 42 5.6 29 -1.7 60 60 ESE 5 7 30.10 1019 10 16 0.00 0.00
11:52 am 11:52 Cloudy 42 5.6 29 -1.7 60 60 E 6 9 30.06 1018 10 16 0.00 0.00
12:52 pm 12:52 Cloudy with Light Rain 41 5 31 -0.6 67 67 ENE 9 15 30.03 1017 10 16 0.00 0.00
1:52 pm 13:52 Cloudy 41 5 31 -0.6 67 67 E 8 13 29.99 1016 10 16 0.00 0.00
2:52 pm 14:52 Cloudy 41 5 31 -0.6 67 67 SE 8 13 29.95 1014 10 16 0.00 0.00
3:03 pm 15:03 Cloudy 41 5 31 -0.6 67 67 ESE 10 17 29.95 1014 10 16 0.00 0.00
3:52 pm 15:52 Cloudy 41 5 32 0 70 70 SSE 12 19 29.93 1014 10 16 0.00 0.00
4:52 pm 16:52 Cloudy 41 5 33 0.6 73 73 SSE 6 9 29.93 1014 10 16 0.00 0.00
5:52 pm 17:52 Cloudy 41 5 33 0.6 73 73 SSE 6 9 29.92 1013 10 16 0.00 0.00
6:52 pm 18:52 Cloudy 41 5 34 1.1 76 76 S 7 11 29.89 1012 10 16 0.00 0.00
7:06 pm 19:06 Cloudy 42 5.6 34 1.1 73 73 S 7 11 29.89 1012 10 16 0.00 0.00
7:52 pm 19:52 Cloudy 41 5 34 1.1 76 76 S 6 9 29.88 1012 10 16 0.00 0.00
8:52 pm 20:52 Mostly Cloudy 40 4.4 34 1.1 79 79 ESE 3 6 29.85 1011 10 16 0.00 0.00
9:52 pm 21:52 Partly Cloudy 40 4.4 34 1.1 79 79 ENE 3 6 29.83 1010 10 16 0.00 0.00
10:52 pm 22:52 Mostly Cloudy 40 4.4 34 1.1 79 79 SE 3 6 29.81 1009 10 16 0.00 0.00
11:52 pm 23:52 Mostly Cloudy 39 3.9 34 1.1 82 82 NE 5 7 29.82 1010 10 16 0.00 0.00

Powered by AerisWeather